Clarksville, TN

4:21 AM CDT on August 23, 2017 (GMT -0500)
Outlaw

Weather History for KCKV - November, 2011

Change the Weather History Date:

Sunday, November 27, 2011

  Actual Average Record
Temperature  
Mean Temperature 49 °F 44 °F  
Max Temperature 61 °F 54 °F 78 °F (1965)
Min Temperature 36 °F 34 °F 14 °F (1977)
Degree Days  
Heating Degree Days 16    
Month to date heating degree days 326  
Since 1 July heating degree days 599  
Cooling Degree Days 0    
Month to date cooling degree days 4  
Year to date cooling degree days  
Moisture  
Dew Point 44 °F    
Average Humidity 95    
Maximum Humidity 100    
Minimum Humidity 89    
Precipitation  
Precipitation 1.59 in 0.18 in 2.76 in (2001)
Month to date precipitation 8.83 4.01  
Year to date precipitation 44.58  
Sea Level Pressure  
Sea Level Pressure 29.95 in    
Wind  
Wind Speed 10 mph (NW)    
Max Wind Speed 21 mph    
Max Gust Speed 25 mph    
Visibility 7 miles    
Events Rain    
T = Trace of Precipitation, MM = Missing Value Source: NWS Daily Summary

Daily Weather History Graph

Daily Weather History Graph

Search for Another Location

Airport or City:

Trip Planner

Search our weather history database for the weather conditions in past years. The results will help you decide how hot, cold, wet, or windy it might be!

Date:

Astronomy

Nov. 27, 2011 Rise Set
Actual Time 6:39 AM CST 4:34 PM CST
Civil Twilight 6:11 AM CST 5:03 PM CST
Nautical Twilight 5:39 AM CST 5:34 PM CST
Astronomical Twilight 5:08 AM CST 6:05 PM CST
Moon 9:03 AM CST (11/27) 7:13 PM CST (11/27)
Length of Visible Light 10h 52m
Length of Day
9h 55m
Waxing Crescent, 8% of the Moon is Illuminated
Nov 27
Waxing Crescent
Dec 2
First Quarter
Dec 10
Full
Dec 17
Last Quarter
Dec 24
New

Hourly Weather History & Observations

Time (CST) Temp. Windchill Dew Point Humidity Pressure Visibility Wind Dir Wind Speed Gust Speed Precip Events Conditions
12:52 AM 59.0 °F - 57.9 °F 96% 29.87 in 6.0 mi South 5.8 mph - 0.05 in Rain Light Rain
1:52 AM 59.0 °F - 57.9 °F 96% 29.86 in 5.0 mi South 12.7 mph - 0.13 in Rain Light Rain
2:52 AM 59.0 °F - 57.9 °F 96% 29.84 in 2.5 mi South 6.9 mph - 0.19 in Rain Rain
3:04 AM 59.0 °F - 57.2 °F 94% 29.85 in 3.0 mi South 6.9 mph - 0.05 in Rain Rain
3:13 AM 59.0 °F - 57.2 °F 94% 29.85 in 2.5 mi South 6.9 mph - 0.10 in Rain Rain
3:23 AM 59.0 °F - 57.2 °F 94% 29.85 in 2.5 mi South 6.9 mph - 0.14 in Rain Rain
3:38 AM 59.0 °F - 57.2 °F 94% 29.84 in 1.8 mi WSW 3.5 mph - 0.20 in Rain Heavy Rain
3:45 AM 59.0 °F - 57.2 °F 94% 29.84 in 2.0 mi Calm Calm - 0.22 in Rain Light Rain
4:02 AM 59.0 °F - 57.2 °F 94% 29.83 in 4.0 mi Calm Calm - 0.01 in Rain Light Rain
4:11 AM 59.0 °F - 57.2 °F 94% 29.83 in 6.0 mi Calm Calm - 0.01 in Rain Light Rain
4:45 AM 59.0 °F - 57.2 °F 94% 29.83 in 5.0 mi SSE 4.6 mph - 0.05 in Rain Light Rain
4:52 AM 57.9 °F - 57.9 °F 100% 29.82 in 6.0 mi South 3.5 mph - 0.06 in Rain Light Rain
5:01 AM 57.2 °F - 57.2 °F 100% 29.83 in 6.0 mi WSW 3.5 mph - 0.01 in Rain Light Rain
5:29 AM 57.2 °F - 57.2 °F 100% 29.82 in 4.0 mi Calm Calm - 0.04 in Rain Light Rain
5:52 AM 57.9 °F - 57.0 °F 97% 29.83 in 10.0 mi Calm Calm - 0.05 in Rain Light Rain
6:52 AM 50.0 °F - 48.0 °F 93% 29.88 in 3.0 mi NW 18.4 mph - 0.04 in Rain Light Rain
7:52 AM 45.0 °F 38.5 °F 43.0 °F 93% 29.92 in 10.0 mi NW 13.8 mph 21.9 mph 0.01 in Rain Light Rain
8:19 AM 44.6 °F 37.4 °F 42.8 °F 93% 29.94 in 10.0 mi NW 16.1 mph - 0.00 in Rain Light Rain
8:52 AM 45.0 °F 38.9 °F 42.1 °F 90% 29.96 in 10.0 mi NNW 12.7 mph 20.7 mph 0.00 in   Overcast
9:11 AM 44.6 °F 38.8 °F 42.8 °F 93% 29.96 in 2.5 mi NNW 11.5 mph - N/A   Overcast
9:43 AM 44.6 °F 38.1 °F 42.8 °F 93% 29.98 in 3.0 mi NNW 13.8 mph - N/A   Overcast
9:52 AM 44.1 °F 38.1 °F 42.1 °F 93% 29.97 in 4.0 mi NNW 11.5 mph - N/A   Overcast
10:32 AM 44.6 °F 38.1 °F 42.8 °F 93% 29.99 in 10.0 mi NNW 13.8 mph - 0.01 in Rain Light Rain
10:52 AM 44.1 °F 38.1 °F 41.0 °F 89% 29.99 in 10.0 mi NNW 11.5 mph - 0.01 in Rain Light Rain
11:39 AM 42.8 °F 38.0 °F 41.0 °F 93% 29.98 in 4.0 mi NW 8.1 mph - 0.05 in Rain Light Rain
11:46 AM 42.8 °F 38.0 °F 42.8 °F 100% 29.98 in 5.0 mi WNW 8.1 mph - 0.07 in Rain Rain
11:52 AM 43.0 °F 36.8 °F 42.1 °F 97% 29.97 in 4.0 mi NW 11.5 mph - 0.08 in Rain Rain
12:52 PM 44.1 °F 39.0 °F 42.1 °F 93% 29.97 in 9.0 mi NNW 9.2 mph - 0.02 in Rain Light Rain
1:03 PM 42.8 °F 36.2 °F 41.0 °F 93% 29.97 in 8.0 mi NNW 12.7 mph - 0.01 in Rain Light Rain
1:52 PM 43.0 °F 36.4 °F 41.0 °F 93% 29.98 in 10.0 mi NNW 12.7 mph - 0.04 in Rain Light Rain
2:02 PM 42.8 °F 37.0 °F 41.0 °F 93% 29.97 in 9.0 mi NNW 10.4 mph - 0.01 in Rain Light Rain
2:52 PM 43.0 °F 37.2 °F 41.0 °F 93% 29.99 in 8.0 mi NW 10.4 mph - 0.03 in Rain Light Rain
3:02 PM 42.8 °F 37.0 °F 39.2 °F 87% 29.98 in 5.0 mi NW 10.4 mph - 0.02 in Rain Light Rain
3:19 PM 42.8 °F 36.2 °F 39.2 °F 87% 29.98 in 7.0 mi NNW 12.7 mph - 0.03 in Rain Light Rain
3:52 PM 42.1 °F 34.9 °F 39.9 °F 92% 29.98 in 10.0 mi North 13.8 mph - 0.05 in Rain Light Rain
4:52 PM 41.0 °F 34.3 °F 39.9 °F 96% 30.01 in 7.0 mi NNW 11.5 mph - 0.06 in Rain Light Rain
5:00 PM 41.0 °F 34.7 °F 39.2 °F 93% 30.01 in 6.0 mi NNW 10.4 mph - 0.01 in Rain Rain
5:16 PM 41.0 °F 35.8 °F 39.2 °F 93% 30.00 in 6.0 mi NNW 8.1 mph - 0.04 in Rain Light Rain
5:25 PM 41.0 °F 34.3 °F 39.2 °F 93% 30.00 in 7.0 mi NW 11.5 mph - 0.05 in Rain Light Rain
5:50 PM 41.0 °F 33.9 °F 39.2 °F 93% 30.01 in 10.0 mi NNW 12.7 mph - 0.06 in Rain Light Rain
5:52 PM 41.0 °F 33.1 °F 39.0 °F 93% 30.02 in 10.0 mi NNW 15.0 mph - 0.06 in Rain Light Rain
6:06 PM 41.0 °F 32.8 °F 39.2 °F 93% 30.02 in 8.0 mi NNW 16.1 mph - 0.02 in Rain Light Rain
6:25 PM 41.0 °F 33.9 °F 39.2 °F 93% 30.01 in 9.0 mi North 12.7 mph - 0.04 in Rain Light Rain
6:52 PM 41.0 °F 35.2 °F 39.0 °F 93% 30.03 in 8.0 mi North 9.2 mph - 0.07 in Rain Light Rain
7:52 PM 39.9 °F 32.1 °F 37.9 °F 93% 30.03 in 8.0 mi North 13.8 mph - 0.10 in Rain Light Rain
8:52 PM 39.0 °F 32.8 °F 37.9 °F 96% 30.02 in 10.0 mi NNW 9.2 mph - 0.07 in Rain Light Rain
8:54 PM 39.2 °F 32.5 °F 37.4 °F 93% 30.01 in 10.0 mi NNW 10.4 mph - 0.00 in Rain Light Rain
9:04 PM 39.2 °F 32.0 °F 37.4 °F 93% 30.02 in 7.0 mi NNW 11.5 mph - 0.01 in Rain Light Rain
9:13 PM 39.2 °F 31.6 °F 37.4 °F 93% 30.03 in 7.0 mi NNW 12.7 mph - 0.02 in Rain Light Rain
9:26 PM 37.4 °F 28.9 °F 35.6 °F 93% 30.02 in 7.0 mi NNW 13.8 mph - 0.04 in Rain Light Rain
9:34 PM 37.4 °F 29.3 °F 35.6 °F 93% 30.02 in 6.0 mi NNW 12.7 mph - 0.06 in Rain Rain
9:48 PM 37.4 °F 29.8 °F 35.6 °F 93% 30.02 in 7.0 mi NNW 11.5 mph - 0.08 in Rain Light Rain
9:52 PM 37.0 °F 29.3 °F 36.0 °F 96% 30.02 in 7.0 mi NNW 11.5 mph - 0.09 in Rain Light Rain
10:08 PM 37.4 °F 29.8 °F 35.6 °F 93% 30.01 in 7.0 mi NNW 11.5 mph - 0.02 in Rain Light Rain
10:49 PM 37.4 °F 30.3 °F 35.6 °F 93% 30.00 in 8.0 mi NNW 10.4 mph - 0.09 in Rain Light Rain
10:50 PM 37.0 °F 29.8 °F 35.1 °F 93% 30.01 in 8.0 mi NNW 10.4 mph - 0.09 in Rain Light Rain
10:59 PM 37.4 °F 30.8 °F 35.6 °F 93% 30.00 in 8.0 mi NNW 9.2 mph - 0.01 in Rain Light Rain
11:52 PM 36.0 °F 30.3 °F 35.1 °F 97% 30.01 in 8.0 mi NNW 6.9 mph - 0.06 in Rain Light Rain